CAPE
0 0 0 0 0 0 0 0 0 143 140 186 135 124 271 436 325 496 504 392 185 607 1012 1167 1208 1508 1754 1790 1773 1783 1806 1876 1840 1764 1574 1437 1685 1714 1499 1131 832 756 732 932 1349 1393 1530 1639 1575
0 0 0 0 0 0 0 0 31 98 214 175 176 252 210 317 499 527 468 280 242 645 1124 1292 1215 1591 1851 1903 1922 2087 2037 2122 1982 1811 1767 1786 1782 1896 1535 907 746 878 994 1202 1316 1407 1692 1626 1488
0 0 0 0 0 0 0 0 150 189 165 236 262 364 385 283 347 312 327 129 246 570 850 1225 1266 1512 1839 2145 2311 2422 2415 2243 2219 2139 2113 2025 1941 1707 1458 1063 908 1039 1186 1288 1402 1253 980 1139 1549
0 0 0 0 0 0 0 31 96 188 299 296 126 229 512 683 471 500 325 189 153 321 586 861 1140 1428 1561 1616 1730 1895 2043 2041 1929 1839 1940 1906 1800 1299 755 916 1003 1020 1183 1185 1211 1038 833 638 693
0 0 0 0 0 0 13 98 198 156 221 336 263 266 431 872 971 529 453 250 149 187 388 441 1022 1221 1407 1491 1465 1458 1652 1803 1845 1840 1818 1658 1447 1300 1004 1019 1068 1104 1051 808 865 1100 1170 1108 1017
0 0 0 0 0 0 21 91 65 20 128 188 194 157 410 983 724 571 488 224 85 202 404 422 783 1101 1309 1403 1350 1367 1481 1489 1469 1555 1672 1443 1275 1157 1089 826 610 491 429 403 409 422 494 495 498
0 0 0 0 0 0 0 0 0 0 2 3 52 24 550 951 695 573 305 167 160 154 326 519 544 690 800 847 922 1087 1362 1269 1116 1007 906 1022 947 710 570 432 251 228 215 166 90 81 105 93 65
0 0 0 0 0 0 0 0 0 0 0 70 63 0 217 677 891 771 350 205 220 375 380 627 795 658 760 748 471 636 866 1043 759 552 317 359 425 193 43 0 21 44 16 12 0 0 0 0 0
0 0 0 0 0 0 0 0 0 0 0 0 0 20 233 894 1045 1005 643 395 424 591 819 918 832 754 670 474 457 232 533 838 682 465 154 262 540 505 153 0 0 0 0 0 0 0 0 0 0
0 0 0 0 0 0 0 0 0 0 0 0 0 24 649 1215 1243 1238 1042 662 814 906 1122 1173 1254 1046 745 220 704 652 535 688 1066 1150 1221 836 912 750 168 1 0 0 0 0 0 0 0 0 0
0 0 0 0 0 0 0 0 0 0 0 0 0 0 822 1154 1276 1122 959 492 923 1135 1279 1243 1486 1436 1079 290 480 348 307 445 712 1358 1550 1203 1143 868 599 422 99 51 0 0 0 0 0 0 0
0 0 0 0 0 0 0 0 0 0 0 0 0 0 496 873 606 468 356 471 613 1074 1330 1487 1443 1642 1622 656 312 363 388 369 505 719 1441 1216 863 730 632 246 11 0 0 1 0 0 0 0 0
0 0 0 0 0 0 0 0 0 0 0 0 0 13 193 323 257 295 222 148 413 1051 1593 1885 1888 1747 1138 1240 473 604 627 330 576 571 499 919 583 418 197 20 0 0 0 2 9 4 0 0 0
0 0 0 0 0 0 0 0 0 0 0 0 0 0 107 178 80 201 372 565 880 1207 1597 2147 2155 1633 690 525 574 300 171 122 127 69 55 375 554 142 8 0 0 0 0 0 1 0 0 0 0
0 0 0 0 0 0 0 0 0 0 0 0 0 0 12 123 56 63 100 497 687 895 1197 1962 1850 676 512 258 84 10 0 13 0 0 13 54 85 26 30 0 0 0 0 0 34 0 0 0 0
0 0 0 0 0 0 0 0 0 0 0 0 0 0 0 122 259 104 226 690 940 784 1038 1486 734 199 148 43 33 16 15 33 26 18 17 22 44 61 57 22 3 5 23 1 12 0 0 0 0
0 0 0 0 0 0 0 0 0 0 0 0 0 0 0 0 380 679 793 703 309 303 727 1190 545 14 10 49 45 53 61 29 0 0 0 1 12 29 66 30 26 63 57 32 23 6 0 0 0
0 0 0 0 0 0 0 0 0 0 0 0 0 0 0 0 212 36 0 0 1 183 703 705 103 40 67 35 6 0 0 0 0 0 0 0 0 0 3 5 23 47 52 34 13 18 12 2 0
0 0 0 0 0 0 0 0 0 0 0 0 0 0 0 0 0 0 0 0 0 185 225 61 31 0 0 0 0 0 0 0 0 0 0 0 0 0 0 0 4 16 22 35 63 55 53 32 15
0 0 0 0 0 0 0 0 0 0 0 0 0 0 0 0 0 0 0 0 0 2 1 0 0 0 0 0 0 0 0 0 0 0 0 0 0 0 0 0 0 0 0 0 12 41 50 57 38
0 0 0 0 0 0 0 0 0 0 0 0 0 0 0 0 0 0 0 0 0 0 0 0 0 0 0 0 0 0 0 0 0 0 0 0 0 0 0 0 0 0 0 0 0 0 2 8 55
0 0 0 0 0 0 0 0 0 0 0 0 0 0 0 0 0 0 0 0 0 0 0 0 0 0 0 0 0 0 0 0 0 0 0 0 0 0 0 0 0 0 0 0 0 0 0 9 14
0 0 0 0 0 0 0 0 0 0 0 0 0 0 0 0 0 0 0 0 0 0 0 0 0 0 0 0 0 0 0 0 0 0 0 0 0 0 0 0 0 0 0 0 0 0 0 2 22
0 0 0 0 0 0 0 0 0 0 0 0 0 0 0 0 0 0 0 0 0 0 0 0 0 0 0 0 0 0 0 0 0 0 0 0 0 0 0 0 0 0 0 0 0 2 5 7 12
0 0 0 1 0 0 0 0 0 0 0 0 0 0 0 0 0 0 0 0 0 0 0 0 0 0 0 0 0 0 0 0 0 0 0 0 0 0 0 0 0 0 0 0 5 13 14 8 9
0 0 0 0 0 0 0 0 0 0 0 0 0 0 0 0 0 0 0 0 0 0 0 0 0 0 0 0 0 0 0 0 0 0 0 0 0 0 0 1 5 13 20 44 55 33 11 22 41
0 0 0 0 0 0 0 0 0 0 0 0 0 0 0 0 0 0 0 0 0 0 0 0 0 0 0 0 0 0 0 0 0 0 0 0 0 0 2 16 12 3 5 8 6 12 10 13 22
0 0 0 0 0 0 0 0 2 0 3 0 0 0 0 0 0 0 0 0 0 1 0 0 0 0 0 0 0 0 0 0 0 0 0 0 5 21 11 4 5 7 13 23 20 15 3 12 4
0 0 0 0 0 0 0 0 0 0 0 0 0 0 0 0 2 9 1 0 0 0 0 0 2 2 0 0 0 0 0 0 0 0 1 8 17 9 7 8 14 21 19 10 15 16 23 16 12
0 0 0 0 0 3 2 0 0 0 0 0 5 2 0 1 13 15 11 2 5 2 0 0 0 0 0 0 0 0 0 1 4 18 18 15 33 39 39 33 20 23 24 18 11 20 17 12 8
CIN
0 0 0 0 0 0 0 0 0 -3 -7 -41 -48 -25 -13 -45 -24 -3 -53 -116 -186 -35 0 0 -41 -17 -10 -17 -19 -19 -19 -17 -11 -9 -14 -11 0 0 -7 -52 -100 -119 -108 -76 -47 -41 -17 -6 -3
0 0 0 0 0 0 0 0 -1 -3 -25 -34 -40 -35 -22 -35 -52 -57 -59 -156 -166 -67 -8 -3 -56 -11 -6 -6 -7 -1 -1 0 0 0 0 0 0 0 -3 -74 -121 -88 -70 -47 -27 -20 -1 -2 -3
0 0 0 0 0 0 0 0 -5 -15 -37 -20 -15 -19 -23 -35 -61 -62 -88 -215 -180 -96 -48 -18 -36 -19 -5 -1 0 0 0 0 0 0 0 0 0 -6 -35 -86 -110 -99 -67 -40 -28 -31 -50 -31 -2
0 0 0 0 0 0 0 -4 -5 -9 -15 -19 -7 -13 -33 -20 -37 -44 -127 -174 -173 -138 -89 -117 -92 -59 -46 -36 -33 -30 -12 -6 -3 -1 0 0 0 -24 -81 -61 -64 -58 -45 -48 -38 -48 -59 -83 -80
0 0 0 0 0 0 -6 -1 0 0 -2 -5 -12 -15 -19 -10 -15 -73 -86 -131 -155 -132 -101 -108 -119 -82 -62 -66 -73 -59 -29 -7 -2 -3 -2 -15 -24 -29 -58 -52 -41 -40 -37 -48 -32 -6 -6 -17 -37
0 0 0 0 0 0 -35 -21 -25 -49 -3 -15 -9 -11 -18 -18 -39 -55 -71 -117 -151 -130 -94 -108 -153 -104 -88 -74 -77 -70 -50 -41 -42 -33 -24 -35 -45 -46 -42 -62 -86 -100 -107 -110 -108 -104 -77 -77 -86
0 0 0 0 0 0 0 0 0 -5 -14 -17 -64 -31 -27 -14 -28 -54 -80 -105 -108 -107 -77 -62 -59 -118 -161 -135 -114 -81 -30 -42 -62 -68 -71 -56 -51 -69 -82 -101 -138 -135 -131 -151 -228 -266 -260 -292 -327
0 0 0 0 0 0 0 0 0 0 0 -79 -64 0 -14 -14 -30 -42 -71 -87 -71 -59 -40 -40 -58 -43 -43 -41 -189 -137 -87 -68 -113 -143 -190 -157 -130 -187 -259 -4 -289 -238 -287 -323 0 0 0 0 0
0 0 0 0 0 0 0 0 0 0 0 0 0 -18 -22 -15 -26 -20 -38 -52 -36 -28 -40 -50 -41 -40 -39 -42 -98 -210 -153 -92 -117 -140 -220 -252 -26 -29 -74 0 0 0 0 0 0 0 0 0 0
0 0 0 0 0 0 0 0 0 0 0 0 0 -124 -13 -14 -13 -4 -5 -6 -13 -14 -22 -30 -40 -32 -45 -85 -37 -34 -40 -19 -3 -1 -2 -8 -11 -11 -80 -90 0 0 0 0 0 0 0 0 0
0 0 0 0 0 0 0 0 0 0 0 0 0 -4 -11 -5 0 0 0 -2 0 -1 -4 -20 -29 -32 -27 -45 -32 -34 -43 -34 -13 0 0 0 -1 0 0 0 -4 -13 0 0 0 0 0 0 0
0 0 0 0 0 0 0 0 0 0 0 0 0 0 -13 -10 -14 -17 -11 -3 0 0 0 -9 -20 -18 -15 -19 -42 -40 -33 -22 -5 0 0 0 0 0 0 0 0 0 0 0 0 0 0 0 0
0 0 0 0 0 0 0 0 0 0 0 0 0 -37 -22 -15 -19 -28 -23 -13 0 0 0 0 -6 -14 -10 -10 -41 -30 -27 -40 -15 -5 -2 0 0 0 0 -1 0 0 0 0 -1 0 0 0 0
0 0 0 0 0 0 0 0 0 0 0 0 0 0 -22 -18 -38 -23 -17 -1 0 0 0 0 -6 -9 -24 -43 -45 -56 -63 -65 -48 -39 -29 -5 0 -1 -9 0 0 0 0 0 0 0 0 0 0
0 0 0 0 0 0 0 0 0 0 0 0 0 0 -48 -30 -49 -44 -29 0 0 0 -1 -4 -6 -22 -39 -51 -68 -84 0 -77 -5 -4 -53 -35 -23 -37 -28 0 0 0 0 0 -5 0 0 0 0
0 0 0 0 0 0 0 0 0 0 0 0 0 0 0 -33 -17 -23 -13 -1 0 -5 -8 -6 -22 -39 -48 -62 -62 -73 -75 -65 -56 -53 -50 -45 -40 -33 -24 -23 -5 -3 -13 -3 -9 0 0 0 0
0 0 0 0 0 0 0 0 0 0 0 0 0 0 0 0 -24 -19 -30 -24 -28 -23 -15 -5 -16 -50 -61 -56 -65 -77 -73 -70 0 0 0 -6 -32 -55 -43 -39 -38 -29 -20 -30 -35 -26 0 0 0
0 0 0 0 0 0 0 0 0 0 0 0 0 0 0 0 -45 -19 0 0 -34 -47 -20 -6 -36 -48 -52 -72 -85 0 0 0 0 0 0 0 0 0 -19 -54 -40 -33 -24 -30 -29 -28 -36 -13 0
0 0 0 0 0 0 0 0 0 0 0 0 0 0 0 0 0 0 0 0 0 -70 -36 -19 -56 0 0 0 0 0 0 0 0 0 0 0 0 0 0 0 -78 -59 -38 -36 -46 -38 -18 -40 -42
0 0 0 0 0 0 0 0 0 0 0 0 0 0 0 0 0 0 0 0 0 -108 -30 0 0 0 0 0 0 0 0 0 0 0 0 0 0 0 0 0 0 0 0 0 -72 -49 -22 -6 -16
0 0 0 0 0 0 0 0 0 0 0 0 0 0 0 0 0 0 0 0 0 0 0 0 0 0 0 0 0 0 0 0 0 0 0 0 0 0 0 0 0 0 0 0 0 0 -20 -3 0
0 0 0 0 0 0 0 0 0 0 0 0 0 0 0 0 0 0 0 0 0 0 0 0 0 0 0 0 0 0 0 0 0 0 0 0 0 0 0 0 0 0 0 0 0 0 0 0 -1
0 0 0 0 0 0 0 0 0 0 0 0 0 0 0 0 0 0 0 0 0 0 0 0 0 0 0 0 0 0 0 0 0 0 0 0 0 0 0 0 0 0 0 0 0 0 0 0 0
0 0 0 0 0 0 0 0 0 0 0 0 0 0 0 0 0 0 0 0 0 0 0 0 0 0 0 0 0 0 0 0 0 0 0 0 0 0 0 0 0 0 0 0 0 0 0 0 0
0 0 0 -42 0 0 0 0 0 0 0 0 0 0 0 0 0 0 0 0 0 0 0 0 0 0 0 0 0 0 0 0 0 0 0 0 0 0 0 0 0 0 0 0 0 0 0 0 0
0 0 0 0 0 0 0 0 0 0 0 0 0 0 0 0 0 0 0 0 0 0 0 0 0 0 0 0 0 0 0 0 0 0 0 0 0 0 0 0 0 0 0 0 0 -2 0 0 0
0 0 0 0 0 0 0 0 0 0 0 0 0 0 0 0 0 0 0 0 0 0 0 0 0 0 0 0 0 0 0 0 0 0 0 0 0 0 0 0 0 0 0 0 0 0 0 0 0
0 0 0 0 0 0 0 0 0 -1 -3 0 0 0 0 0 0 0 0 -1 0 -52 0 0 0 0 0 0 0 0 0 0 0 0 0 0 0 0 0 0 0 0 0 0 0 0 0 0 0
0 0 0 0 0 0 0 0 0 0 0 0 0 0 0 0 0 0 0 0 0 0 0 0 -7 -12 0 0 0 0 0 0 0 0 0 0 0 0 0 0 0 0 0 0 0 0 0 0 0
0 0 0 0 0 0 0 0 0 0 0 0 0 0 0 0 -2 -1 0 -15 -16 -6 0 0 0 0 0 0 0 0 0 0 0 0 0 0 0 0 0 0 0 0 0 0 0 0 0 0 0
Wind_Speed
7 6 3 5 6 3 10 9 7 11 7 2 1 4 9 9 7 7 8 7 8 9 8 9 4 5 9 9 8 6 6 5 5 7 8 8 11 10 11 10 8 9 8 7 8 7 7 8 7
1 3 5 3 5 11 9 9 9 8 11 9 7 4 3 8 6 11 10 7 8 9 8 7 6 6 5 6 5 5 5 6 8 9 9 9 9 10 10 9 10 9 9 10 9 8 9 7 7
4 5 5 3 2 10 12 8 13 12 6 5 5 4 2 7 7 10 9 10 8 8 6 10 7 8 9 8 6 4 4 5 6 5 5 7 8 8 6 6 6 8 9 10 11 12 11 10 6
5 6 5 5 15 7 14 13 14 9 5 2 5 8 7 5 9 6 12 10 8 8 6 9 6 7 7 6 6 6 6 6 6 6 6 6 8 8 8 6 6 7 8 9 10 10 10 9 7
4 5 7 12 15 11 9 11 7 6 6 7 2 6 8 8 6 13 11 8 8 8 6 8 4 4 5 6 5 6 6 6 5 5 6 9 7 7 7 7 7 9 8 8 10 10 10 9 7
5 5 12 14 14 10 8 6 5 2 4 6 6 9 8 4 12 11 10 10 9 9 7 8 7 3 3 2 3 4 5 5 5 6 7 7 7 7 7 7 7 6 5 5 6 6 7 7 8
2 3 13 15 14 11 10 5 7 8 9 6 7 8 5 9 12 10 10 10 8 7 7 7 6 7 2 2 3 4 3 3 5 7 7 7 6 5 5 6 5 4 5 6 7 8 6 6 5
1 4 13 14 11 12 7 7 5 6 6 6 2 7 8 12 15 11 10 8 7 7 7 5 4 6 3 7 5 3 2 3 4 5 5 4 5 3 4 3 6 5 6 6 6 6 5 5 5
2 6 9 9 9 10 8 8 4 1 7 3 4 3 6 17 14 11 9 9 7 6 6 4 5 4 2 1 5 6 5 2 2 4 4 6 2 2 2 7 3 4 4 4 4 4 3 2 4
4 5 6 4 4 11 9 5 7 7 8 6 7 6 9 17 16 14 13 12 10 10 9 7 6 4 2 2 1 1 1 2 3 3 4 4 4 4 5 1 1 1 0 2 1 1 5 9 4
2 8 9 7 7 8 9 7 5 7 8 9 10 12 16 18 16 14 12 10 11 10 8 8 6 4 5 1 1 1 1 2 2 4 5 4 5 4 4 4 3 4 1 5 4 4 5 6 6
11 6 5 7 5 6 7 5 5 7 6 5 2 11 16 17 14 12 12 10 10 10 9 8 6 5 5 4 2 2 3 3 4 4 5 4 4 5 5 5 7 5 5 7 6 5 5 6 5
12 9 8 4 5 3 2 4 2 5 3 4 6 9 14 14 12 11 12 11 11 10 9 7 6 6 4 4 2 3 3 3 5 5 5 5 6 5 6 6 6 6 6 6 6 6 6 5 5
5 7 7 3 4 3 5 4 5 7 2 6 7 11 13 13 13 13 13 11 10 9 9 8 8 7 5 4 3 2 2 3 3 4 5 6 6 6 7 7 7 7 6 6 6 6 7 6 5
7 10 6 6 3 3 4 7 4 4 2 1 6 9 12 14 14 13 12 12 11 8 6 9 8 7 5 4 2 1 1 3 3 3 5 6 7 7 8 7 7 7 7 8 7 7 7 7 6
5 4 6 8 0 2 6 8 9 4 6 8 6 5 12 16 15 11 9 8 8 8 8 9 7 7 5 3 2 1 1 2 3 3 4 6 7 9 9 8 8 8 8 8 8 8 8 8 8
2 2 1 7 3 4 3 1 7 8 8 11 8 6 11 14 14 8 8 10 9 9 9 10 8 6 5 3 3 2 2 3 3 4 5 7 8 9 9 10 10 10 9 9 9 10 10 10 9
2 3 3 1 6 6 3 3 6 9 3 3 3 4 7 11 11 7 6 5 5 5 7 8 7 4 1 2 2 3 3 2 3 4 5 7 7 9 9 10 12 11 10 11 11 13 12 12 12
1 1 2 3 5 7 3 2 8 9 9 8 6 6 8 10 7 3 1 2 3 5 6 6 7 5 3 2 4 4 4 4 4 5 7 8 8 9 10 9 11 11 11 12 13 14 15 13 13
1 2 2 2 1 6 2 5 8 10 11 10 11 11 10 11 10 9 10 9 7 9 9 7 6 7 5 4 4 3 5 5 5 5 8 9 12 12 11 11 11 12 11 13 14 14 13 13 13
2 2 4 5 4 4 4 7 6 7 10 11 12 12 12 12 12 11 11 11 10 9 7 8 10 11 9 7 4 3 1 4 5 8 9 11 14 13 13 12 11 11 11 11 13 13 17 14 13
1 3 8 7 7 4 3 5 6 4 9 9 9 10 10 10 9 9 8 8 9 10 11 11 10 8 8 8 5 6 6 6 6 7 7 11 12 12 13 13 12 11 10 12 12 12 13 14 15
5 8 5 4 7 4 3 7 10 2 7 7 9 10 10 9 9 9 9 11 11 10 9 8 7 8 7 6 7 7 7 6 6 8 12 12 11 13 12 11 12 10 8 10 11 11 11 11 12
6 3 1 1 2 5 3 6 8 2 4 8 9 9 9 8 7 8 8 8 9 8 7 6 7 7 8 8 8 8 8 10 10 12 12 11 12 11 13 11 9 7 7 6 6 6 7 7 8
8 3 3 3 4 2 1 7 9 5 7 7 6 8 8 8 7 6 5 6 6 6 6 5 7 7 8 8 5 6 8 12 13 14 12 16 12 11 11 10 7 5 5 4 3 2 2 4 3
6 6 4 3 3 4 4 3 8 7 6 6 7 6 6 7 7 6 3 4 5 5 6 6 6 6 6 5 8 9 11 9 11 13 13 12 11 10 8 6 7 7 6 6 6 5 7 8 5
3 5 2 3 2 4 1 4 8 7 6 5 6 3 4 4 4 5 5 6 5 6 4 6 7 8 9 10 9 9 10 13 11 14 13 10 11 7 7 7 7 5 6 7 7 6 7 10 9
4 4 2 2 3 4 3 7 7 10 5 2 3 2 2 1 4 7 9 7 6 7 7 8 9 9 8 9 7 8 10 10 10 11 12 11 8 7 7 5 5 5 6 8 9 7 5 6 5
4 3 3 1 2 3 4 5 5 2 2 4 8 8 6 6 8 10 11 10 9 7 7 8 8 8 8 7 8 10 9 8 9 9 9 8 8 7 6 6 7 8 9 8 7 9 12 10 8
2 1 1 2 3 2 4 7 5 1 2 4 12 7 5 7 11 11 10 9 7 6 8 8 8 9 7 8 9 9 8 9 9 9 9 9 9 7 9 10 10 11 9 10 10 11 11 10 10
Wind_Direction
198 191 224 228 211 198 129 107 110 124 130 67 53 321 43 20 2 38 108 102 125 135 133 136 57 108 153 155 159 140 127 94 70 66 69 78 65 61 49 40 41 33 20 17 18 21 23 17 7
199 177 223 239 188 149 119 127 128 95 105 107 108 129 79 71 68 107 140 133 138 134 143 129 87 67 92 129 108 103 101 77 56 49 54 57 57 49 42 37 29 25 20 14 7 7 8 0 354
195 236 245 171 138 110 118 134 119 120 138 182 123 16 68 87 113 126 106 138 137 138 135 93 67 66 66 70 79 69 83 98 91 81 73 71 75 81 76 60 41 30 20 15 15 12 360 343 330
208 196 185 181 109 87 113 128 133 142 132 170 119 100 106 15 124 106 123 137 143 130 124 102 67 63 72 88 92 78 75 77 66 56 66 73 62 60 57 59 53 27 26 29 23 17 10 4 351
224 246 147 114 102 116 109 128 154 140 124 144 215 113 100 111 96 128 136 139 136 130 119 131 74 67 58 59 68 81 85 86 98 91 86 78 77 75 77 67 61 54 44 29 25 21 27 32 28
189 250 143 124 114 119 118 139 167 148 143 115 124 123 99 100 142 139 144 144 137 139 148 139 124 78 64 103 104 107 113 120 110 94 92 94 86 80 83 77 65 61 52 35 30 35 35 39 41
200 139 110 122 132 145 137 150 172 140 139 128 124 124 101 155 139 145 149 143 147 148 149 142 143 127 160 146 147 137 146 121 88 76 75 82 89 84 76 67 59 52 28 17 17 19 22 33 38
96 112 135 130 154 129 129 173 158 186 125 118 226 140 165 154 152 150 151 152 162 152 161 148 147 146 189 151 145 130 108 74 74 80 82 100 130 115 110 186 69 38 28 24 18 17 18 16 22
245 159 137 142 161 138 153 162 142 58 149 191 160 48 88 142 149 153 150 167 179 183 178 178 178 163 172 119 106 177 161 137 174 173 133 219 332 5 236 70 44 23 15 24 35 37 10 249 159
280 158 97 89 110 139 156 189 144 181 165 180 164 130 158 152 165 170 175 175 183 188 197 182 205 176 195 203 211 127 53 352 345 334 331 310 349 354 316 283 177 211 346 191 238 264 261 247 318
73 108 130 128 128 151 155 174 182 195 186 154 174 157 162 168 178 182 185 176 186 188 191 198 182 204 238 196 261 242 299 338 313 305 317 347 327 340 313 319 294 321 150 303 299 295 313 336 317
117 99 143 136 147 182 182 139 201 230 97 62 141 156 165 179 181 187 183 188 185 190 195 185 189 198 229 270 247 327 291 329 308 345 324 307 306 328 324 323 326 309 326 322 309 312 325 311 302
114 123 102 114 150 85 124 177 282 229 216 168 171 178 174 180 179 185 192 189 186 208 202 203 187 209 233 244 287 289 293 300 333 306 319 304 308 316 313 319 310 313 312 304 304 308 310 304 285
109 118 109 128 143 94 252 154 248 93 71 173 191 190 190 186 185 181 194 202 212 218 213 199 194 201 211 235 259 297 328 333 303 320 328 315 301 309 309 307 307 301 302 299 292 299 295 288 290
145 140 130 77 146 96 292 205 164 50 282 165 211 206 203 195 192 190 188 205 217 224 210 190 190 187 200 208 217 291 340 301 310 324 318 303 291 299 300 299 301 303 303 289 271 268 260 267 256
171 193 208 67 88 50 285 132 114 2 310 240 205 215 208 203 199 194 203 225 234 241 208 189 177 184 179 193 223 256 253 284 295 301 299 301 299 297 295 292 294 298 296 293 289 280 272 262 268
160 121 106 151 55 313 317 282 35 342 295 246 241 230 208 206 196 196 220 228 238 235 207 187 176 179 183 184 259 251 266 268 336 323 326 331 309 298 290 288 289 290 282 278 274 273 268 273 261
124 190 184 331 42 333 315 324 4 6 326 228 258 238 201 196 183 178 219 221 217 194 183 171 169 137 124 322 290 280 277 305 304 343 350 332 322 317 303 295 293 289 282 279 277 274 272 263 270
52 262 310 55 75 314 1 60 45 45 61 87 77 107 130 136 152 154 90 135 123 121 149 168 110 67 54 3 330 319 304 313 349 5 1 341 348 329 319 306 300 295 286 282 281 275 266 260 258
289 289 74 109 44 291 27 87 79 55 59 55 80 93 113 122 108 90 85 85 71 78 70 91 86 63 44 37 17 353 340 12 352 354 336 339 343 332 314 309 300 297 293 287 280 278 275 267 256
64 359 18 317 305 213 234 112 106 74 79 86 81 84 76 79 87 76 72 68 75 73 72 76 75 73 59 40 34 6 324 320 342 341 342 344 331 324 317 308 298 293 289 286 288 281 279 275 266
229 16 305 273 251 209 260 152 87 96 98 82 76 72 70 71 72 64 62 58 67 70 81 79 73 66 58 24 38 23 2 342 345 333 323 315 314 309 310 310 305 299 295 291 289 286 285 281 276
30 318 308 271 234 241 136 260 101 133 95 71 76 71 71 63 59 68 73 79 78 78 71 58 59 48 45 34 18 357 353 343 335 321 322 314 318 317 316 313 309 306 306 311 306 303 294 285 280
323 253 184 177 199 227 66 318 121 47 27 88 81 64 49 44 67 82 90 93 89 77 60 46 16 28 24 16 20 5 340 331 335 331 324 327 323 321 317 320 307 315 327 335 341 357 14 0 6
347 247 218 208 203 33 137 272 52 101 89 70 61 53 55 60 69 88 93 84 69 58 40 27 19 4 10 18 339 319 334 333 330 333 330 326 320 321 321 321 318 324 345 2 3 1 27 72 43
20 358 24 318 327 321 179 222 126 127 100 75 75 80 80 73 70 65 38 5 25 10 6 351 339 339 339 331 336 341 342 336 330 333 326 316 317 317 325 309 311 318 314 311 316 20 2 343 332
46 56 24 129 160 252 302 149 176 167 116 70 78 79 74 66 45 17 348 323 307 299 307 324 331 338 336 341 340 338 335 332 328 323 316 315 312 316 307 304 309 354 9 13 3 19 7 354 342
25 114 218 35 339 301 306 288 307 187 223 46 25 315 224 300 342 344 335 340 300 290 299 323 331 334 331 333 336 331 324 322 323 320 324 322 316 313 313 328 337 352 353 352 345 332 296 265 278
170 155 70 71 303 281 303 312 72 164 290 311 334 318 276 309 323 329 330 327 321 311 308 325 329 328 329 333 331 322 328 329 326 329 329 328 315 317 311 315 321 340 343 327 288 270 261 269 283
316 131 88 296 189 220 327 280 88 150 62 294 321 339 292 302 312 325 324 331 323 325 329 338 347 339 340 337 329 328 323 324 330 329 328 323 326 322 333 344 334 313 290 294 294 290 287 282 293